Powrót do katalogu

STARLINK-31180

AktywnyŁącznośćVLEO
NORAD 58732·PAYLOAD·🇺🇸 United States

Wystrzelony Jan 7, 2024 z Cape Canaveral Space Force Station

Loading…

Następne Przeloty (najbliższe 24 godziny)

TLE

ŚwieżeSource: CelesTrak SupGP

Epoka: Sep 14, 2026, 22:17 UTC

1 58732C 24005E   26257.92895833  .00024895  00000+0  90170-3 0  2579
2 58732  43.0026 231.0127 0001398 260.3740 172.8473 15.27565317    16

Śledź STARLINK-31180 w czasie rzeczywistym z AllMySat

Download on the App Store